Year,Month,Day,Hour,Minute,Value (Times are PST for temperature in C)
2014,08,03,00,00,19.00
2014,08,03,00,01,18.90
2014,08,03,00,02,18.90
2014,08,03,00,03,18.90
2014,08,03,00,04,18.80
2014,08,03,00,05,18.80
2014,08,03,00,06,18.80
2014,08,03,00,07,18.80
2014,08,03,00,08,18.80
2014,08,03,00,09,18.80
2014,08,03,00,10,18.80
2014,08,03,00,11,18.80
2014,08,03,00,12,18.80
2014,08,03,00,13,18.80
2014,08,03,00,14,18.80
2014,08,03,00,15,18.80
2014,08,03,00,16,18.80
2014,08,03,00,17,18.80
2014,08,03,00,18,18.80
2014,08,03,00,19,18.80
2014,08,03,00,20,18.80
2014,08,03,00,21,18.80
2014,08,03,00,22,18.80
2014,08,03,00,23,18.70
2014,08,03,00,24,18.70
2014,08,03,00,25,18.70
2014,08,03,00,26,18.70
2014,08,03,00,27,18.70
2014,08,03,00,28,18.70
2014,08,03,00,29,18.70
2014,08,03,00,30,18.70
2014,08,03,00,31,18.60
2014,08,03,00,32,18.60
2014,08,03,00,33,18.60
2014,08,03,00,34,18.60
2014,08,03,00,35,18.50
2014,08,03,00,36,18.50
2014,08,03,00,37,18.50
2014,08,03,00,38,18.50
2014,08,03,00,39,18.50
2014,08,03,00,40,18.50
2014,08,03,00,41,18.60
2014,08,03,00,42,18.60
2014,08,03,00,43,18.50
2014,08,03,00,44,18.50
2014,08,03,00,45,18.40
2014,08,03,00,46,18.40
2014,08,03,00,47,18.40
2014,08,03,00,48,18.40
2014,08,03,00,49,18.30
2014,08,03,00,50,18.30
2014,08,03,00,51,18.30
2014,08,03,00,52,18.30
2014,08,03,00,53,18.20
2014,08,03,00,54,18.20
2014,08,03,00,55,18.10
2014,08,03,00,56,18.10
2014,08,03,00,57,18.00
2014,08,03,00,58,18.00
2014,08,03,00,59,17.90
2014,08,03,01,00,17.90
2014,08,03,01,01,17.80
2014,08,03,01,02,17.80
2014,08,03,01,03,17.80
2014,08,03,01,04,17.70
2014,08,03,01,05,17.70
2014,08,03,01,06,17.60
2014,08,03,01,07,17.60
2014,08,03,01,08,17.60
2014,08,03,01,09,17.60
2014,08,03,01,10,17.50
2014,08,03,01,11,17.50
2014,08,03,01,12,17.50
2014,08,03,01,13,17.40
2014,08,03,01,14,17.40
2014,08,03,01,15,17.40
2014,08,03,01,16,17.30
2014,08,03,01,17,17.30
2014,08,03,01,18,17.30
2014,08,03,01,19,17.30
2014,08,03,01,20,17.20
2014,08,03,01,21,17.20
2014,08,03,01,22,17.20
2014,08,03,01,23,17.20
2014,08,03,01,24,17.30
2014,08,03,01,25,17.30
2014,08,03,01,26,17.30
2014,08,03,01,27,17.30
2014,08,03,01,28,17.30
2014,08,03,01,29,17.30
2014,08,03,01,30,17.30
2014,08,03,01,31,17.30
2014,08,03,01,32,17.30
2014,08,03,01,33,17.30
2014,08,03,01,34,17.30
2014,08,03,01,35,17.20
2014,08,03,01,36,17.20
2014,08,03,01,37,17.20
2014,08,03,01,38,17.20
2014,08,03,01,39,17.10
2014,08,03,01,40,17.10
2014,08,03,01,41,17.00
2014,08,03,01,42,17.00
2014,08,03,01,43,17.00
2014,08,03,01,44,16.90
2014,08,03,01,45,16.90
2014,08,03,01,46,16.90
2014,08,03,01,47,16.90
2014,08,03,01,48,16.90
2014,08,03,01,49,16.90
2014,08,03,01,50,16.90
2014,08,03,01,51,16.90
2014,08,03,01,52,16.90
2014,08,03,01,53,16.90
2014,08,03,01,54,16.90
2014,08,03,01,55,16.80
2014,08,03,01,56,16.80
2014,08,03,01,57,16.80
2014,08,03,01,58,16.80
2014,08,03,01,59,16.80
2014,08,03,02,00,16.70
2014,08,03,02,01,16.70
2014,08,03,02,02,16.70
2014,08,03,02,03,16.70
2014,08,03,02,04,16.70
2014,08,03,02,05,16.70
2014,08,03,02,06,16.60
2014,08,03,02,07,16.60
2014,08,03,02,08,16.60
2014,08,03,02,09,16.50
2014,08,03,02,10,16.50
2014,08,03,02,11,16.40
2014,08,03,02,12,16.40
2014,08,03,02,13,16.40
2014,08,03,02,14,16.30
2014,08,03,02,15,16.30
2014,08,03,02,16,16.20
2014,08,03,02,17,16.20
2014,08,03,02,18,16.10
2014,08,03,02,19,16.10
2014,08,03,02,20,16.00
2014,08,03,02,21,16.00
2014,08,03,02,22,16.00
2014,08,03,02,23,15.90
2014,08,03,02,24,15.90
2014,08,03,02,25,15.90
2014,08,03,02,26,15.90
2014,08,03,02,27,15.90
2014,08,03,02,28,15.90
2014,08,03,02,29,15.90
2014,08,03,02,30,15.90
2014,08,03,02,31,15.90
2014,08,03,02,32,15.90
2014,08,03,02,33,15.90
2014,08,03,02,34,16.00
2014,08,03,02,35,16.00
2014,08,03,02,36,16.00
2014,08,03,02,37,16.00
2014,08,03,02,38,16.00
2014,08,03,02,39,16.00
2014,08,03,02,40,16.00
2014,08,03,02,41,16.00
2014,08,03,02,42,16.10
2014,08,03,02,43,16.10
2014,08,03,02,44,16.10
2014,08,03,02,45,16.10
2014,08,03,02,46,16.10
2014,08,03,02,47,16.20
2014,08,03,02,48,16.30
2014,08,03,02,49,16.40
2014,08,03,02,50,16.50
2014,08,03,02,51,16.60
2014,08,03,02,52,16.70
2014,08,03,02,53,16.80
2014,08,03,02,54,16.90
2014,08,03,02,55,16.90
2014,08,03,02,56,16.90
2014,08,03,02,57,16.90
2014,08,03,02,58,17.00
2014,08,03,02,59,17.00
2014,08,03,03,00,17.00
2014,08,03,03,01,17.10
2014,08,03,03,02,17.10
2014,08,03,03,03,17.10
2014,08,03,03,04,17.10
2014,08,03,03,05,17.10
2014,08,03,03,06,17.10
2014,08,03,03,07,17.10
2014,08,03,03,08,17.10
2014,08,03,03,09,17.20
2014,08,03,03,10,17.20
2014,08,03,03,11,17.20
2014,08,03,03,12,17.20
2014,08,03,03,13,17.20
2014,08,03,03,14,17.20
2014,08,03,03,15,17.20
2014,08,03,03,16,17.20
2014,08,03,03,17,17.20
2014,08,03,03,18,17.20
2014,08,03,03,19,17.10
2014,08,03,03,20,17.10
2014,08,03,03,21,17.10
2014,08,03,03,22,17.10
2014,08,03,03,23,17.00
2014,08,03,03,24,17.10
2014,08,03,03,25,17.10
2014,08,03,03,26,17.10
2014,08,03,03,27,17.10
2014,08,03,03,28,17.10
2014,08,03,03,29,17.10
2014,08,03,03,30,17.10
2014,08,03,03,31,17.20
2014,08,03,03,32,17.20
2014,08,03,03,33,17.20
2014,08,03,03,34,17.20
2014,08,03,03,35,17.20
2014,08,03,03,36,17.20
2014,08,03,03,37,17.20
2014,08,03,03,38,17.20
2014,08,03,03,39,17.10
2014,08,03,03,40,17.10
2014,08,03,03,41,17.10
2014,08,03,03,42,17.00
2014,08,03,03,43,17.00
2014,08,03,03,44,16.90
2014,08,03,03,45,16.90
2014,08,03,03,46,16.80
2014,08,03,03,47,16.80
2014,08,03,03,48,16.80
2014,08,03,03,49,16.70
2014,08,03,03,50,16.70
2014,08,03,03,51,16.70
2014,08,03,03,52,16.60
2014,08,03,03,53,16.60
2014,08,03,03,54,16.60
2014,08,03,03,55,16.50
2014,08,03,03,56,16.40
2014,08,03,03,57,16.40
2014,08,03,03,58,16.40
2014,08,03,03,59,16.40
2014,08,03,04,00,16.30
2014,08,03,04,01,16.30
2014,08,03,04,02,16.30
2014,08,03,04,03,16.30
2014,08,03,04,04,16.30
2014,08,03,04,05,16.30
2014,08,03,04,06,16.30
2014,08,03,04,07,16.30
2014,08,03,04,08,16.30
2014,08,03,04,09,16.30
2014,08,03,04,10,16.30
2014,08,03,04,11,16.30
2014,08,03,04,12,16.20
2014,08,03,04,13,16.20
2014,08,03,04,14,16.20
2014,08,03,04,15,16.20
2014,08,03,04,16,16.10
2014,08,03,04,17,16.10
2014,08,03,04,18,16.10
2014,08,03,04,19,16.10
2014,08,03,04,20,16.10
2014,08,03,04,21,16.00
2014,08,03,04,22,16.00
2014,08,03,04,23,16.00
2014,08,03,04,24,16.00
2014,08,03,04,25,16.10
2014,08,03,04,26,16.10
2014,08,03,04,27,16.10
2014,08,03,04,28,16.20
2014,08,03,04,29,16.20
2014,08,03,04,30,16.20
2014,08,03,04,31,16.20
2014,08,03,04,32,16.20
2014,08,03,04,33,16.20
2014,08,03,04,34,16.20
2014,08,03,04,35,16.20
2014,08,03,04,36,16.20
2014,08,03,04,37,16.10
2014,08,03,04,38,16.10
2014,08,03,04,39,16.10
2014,08,03,04,40,16.00
2014,08,03,04,41,16.00
2014,08,03,04,42,16.00
2014,08,03,04,43,16.00
2014,08,03,04,44,16.00
2014,08,03,04,45,16.00
2014,08,03,04,46,16.00
2014,08,03,04,47,16.00
2014,08,03,04,48,16.10
2014,08,03,04,49,16.10
2014,08,03,04,50,16.10
2014,08,03,04,51,16.10
2014,08,03,04,52,16.10
2014,08,03,04,53,16.00
2014,08,03,04,54,16.00
2014,08,03,04,55,15.90
2014,08,03,04,56,15.90
2014,08,03,04,57,15.90
2014,08,03,04,58,15.90
2014,08,03,04,59,15.90
2014,08,03,05,00,15.80
2014,08,03,05,01,15.80
2014,08,03,05,02,15.80
2014,08,03,05,03,15.80
2014,08,03,05,04,15.80
2014,08,03,05,05,15.80
2014,08,03,05,06,15.80
2014,08,03,05,07,15.70
2014,08,03,05,08,15.70
2014,08,03,05,09,15.70
2014,08,03,05,10,15.70
2014,08,03,05,11,15.70
2014,08,03,05,12,15.60
2014,08,03,05,13,15.60
2014,08,03,05,14,15.60
2014,08,03,05,15,15.60
2014,08,03,05,16,15.50
2014,08,03,05,17,15.50
2014,08,03,05,18,15.40
2014,08,03,05,19,15.40
2014,08,03,05,20,15.40
2014,08,03,05,21,15.40
2014,08,03,05,22,15.30
2014,08,03,05,23,15.30
2014,08,03,05,24,15.30
2014,08,03,05,25,15.20
2014,08,03,05,26,15.20
2014,08,03,05,27,15.20
2014,08,03,05,28,15.20
2014,08,03,05,29,15.20
2014,08,03,05,30,15.20
2014,08,03,05,31,15.20
2014,08,03,05,32,15.20
2014,08,03,05,33,15.20
2014,08,03,05,34,15.20
2014,08,03,05,35,15.10
2014,08,03,05,36,15.10
2014,08,03,05,37,15.10
2014,08,03,05,38,15.10
2014,08,03,05,39,15.00
2014,08,03,05,40,15.00
2014,08,03,05,41,15.00
2014,08,03,05,42,15.00
2014,08,03,05,43,15.00
2014,08,03,05,44,15.00
2014,08,03,05,45,15.00
2014,08,03,05,46,15.10
2014,08,03,05,47,15.10
2014,08,03,05,48,15.10
2014,08,03,05,49,15.20
2014,08,03,05,50,15.20
2014,08,03,05,51,15.20
2014,08,03,05,52,15.20
2014,08,03,05,53,15.20
2014,08,03,05,54,15.20
2014,08,03,05,55,15.10
2014,08,03,05,56,15.10
2014,08,03,05,57,15.10
2014,08,03,05,58,15.10
2014,08,03,05,59,15.00
2014,08,03,06,00,15.00
2014,08,03,06,01,15.00
2014,08,03,06,02,14.90
2014,08,03,06,03,14.90
2014,08,03,06,04,14.90
2014,08,03,06,05,14.90
2014,08,03,06,06,14.90
2014,08,03,06,07,14.90
2014,08,03,06,08,14.90
2014,08,03,06,09,14.90
2014,08,03,06,10,14.90
2014,08,03,06,11,14.90
2014,08,03,06,12,15.00
2014,08,03,06,13,15.00
2014,08,03,06,14,15.00
2014,08,03,06,15,15.00
2014,08,03,06,16,15.10
2014,08,03,06,17,15.10
2014,08,03,06,18,15.10
2014,08,03,06,19,15.20
2014,08,03,06,20,15.20
2014,08,03,06,21,15.20
2014,08,03,06,22,15.20
2014,08,03,06,23,15.20
2014,08,03,06,24,15.10
2014,08,03,06,25,15.10
2014,08,03,06,26,15.10
2014,08,03,06,27,15.10
2014,08,03,06,28,15.10
2014,08,03,06,29,15.00
2014,08,03,06,30,15.00
2014,08,03,06,31,14.90
2014,08,03,06,32,14.90
2014,08,03,06,33,14.80
2014,08,03,06,34,14.80
2014,08,03,06,35,14.70
2014,08,03,06,36,14.60
2014,08,03,06,37,14.60
2014,08,03,06,38,14.60
2014,08,03,06,39,14.60
2014,08,03,06,40,14.60
2014,08,03,06,41,14.60
2014,08,03,06,42,14.60
2014,08,03,06,43,14.60
2014,08,03,06,44,14.50
2014,08,03,06,45,14.50
2014,08,03,06,46,14.40
2014,08,03,06,47,14.40
2014,08,03,06,48,14.40
2014,08,03,06,49,14.30
2014,08,03,06,50,14.30
2014,08,03,06,51,14.30
2014,08,03,06,52,14.30
2014,08,03,06,53,14.30
2014,08,03,06,54,14.20
2014,08,03,06,55,14.20
2014,08,03,06,56,14.20
2014,08,03,06,57,14.20
2014,08,03,06,58,14.30
2014,08,03,06,59,14.30
2014,08,03,07,00,14.30
2014,08,03,07,01,14.30
2014,08,03,07,02,14.40
2014,08,03,07,03,14.40
2014,08,03,07,04,14.40
2014,08,03,07,05,14.40
2014,08,03,07,06,14.50
2014,08,03,07,07,14.50
2014,08,03,07,08,14.60
2014,08,03,07,09,14.60
2014,08,03,07,10,14.70
2014,08,03,07,11,14.70
2014,08,03,07,12,14.80
2014,08,03,07,13,14.90
2014,08,03,07,14,15.00
2014,08,03,07,15,15.10
2014,08,03,07,16,15.20
2014,08,03,07,17,15.30
2014,08,03,07,18,15.40
2014,08,03,07,19,15.50
2014,08,03,07,20,15.60
2014,08,03,07,21,15.80
2014,08,03,07,22,15.90
2014,08,03,07,23,15.90
2014,08,03,07,24,16.00
2014,08,03,07,25,16.10
2014,08,03,07,26,16.20
2014,08,03,07,27,16.20
2014,08,03,07,28,16.30
2014,08,03,07,29,16.40
2014,08,03,07,30,16.50
2014,08,03,07,31,16.50
2014,08,03,07,32,16.60
2014,08,03,07,33,16.70
2014,08,03,07,34,16.80
2014,08,03,07,35,16.90
2014,08,03,07,36,16.90
2014,08,03,07,37,17.00
2014,08,03,07,38,17.00
2014,08,03,07,39,17.10
2014,08,03,07,40,17.10
2014,08,03,07,41,17.20
2014,08,03,07,42,17.20
2014,08,03,07,43,17.30
2014,08,03,07,44,17.30
2014,08,03,07,45,17.40
2014,08,03,07,46,17.40
2014,08,03,07,47,17.40
2014,08,03,07,48,17.50
2014,08,03,07,49,17.50
2014,08,03,07,50,17.60
2014,08,03,07,51,17.60
2014,08,03,07,52,17.70
2014,08,03,07,53,17.70
2014,08,03,07,54,17.80
2014,08,03,07,55,17.80
2014,08,03,07,56,17.90
2014,08,03,07,57,18.00
2014,08,03,07,58,18.10
2014,08,03,07,59,18.20
2014,08,03,08,00,18.20
2014,08,03,08,01,18.20
2014,08,03,08,02,18.20
2014,08,03,08,03,18.20
2014,08,03,08,04,18.30
2014,08,03,08,05,18.30
2014,08,03,08,06,18.40
2014,08,03,08,07,18.50
2014,08,03,08,08,18.50
2014,08,03,08,09,18.60
2014,08,03,08,10,18.70
2014,08,03,08,11,18.80
2014,08,03,08,12,18.90
2014,08,03,08,13,18.90
2014,08,03,08,14,19.00
2014,08,03,08,15,19.00
2014,08,03,08,16,19.00
2014,08,03,08,17,19.10
2014,08,03,08,18,19.10
2014,08,03,08,19,19.10
2014,08,03,08,20,19.20
2014,08,03,08,21,19.20
2014,08,03,08,22,19.30
2014,08,03,08,23,19.30
2014,08,03,08,24,19.40
2014,08,03,08,25,19.40
2014,08,03,08,26,19.50
2014,08,03,08,27,19.60
2014,08,03,08,28,19.70
2014,08,03,08,29,19.70
2014,08,03,08,30,19.70
2014,08,03,08,31,19.80
2014,08,03,08,32,19.70
2014,08,03,08,33,19.70
2014,08,03,08,34,19.70
2014,08,03,08,35,19.70
2014,08,03,08,36,19.70
2014,08,03,08,37,19.70
2014,08,03,08,38,19.70
2014,08,03,08,39,19.80
2014,08,03,08,40,19.80
2014,08,03,08,41,19.80
2014,08,03,08,42,19.90
2014,08,03,08,43,20.00
2014,08,03,08,44,20.00
2014,08,03,08,45,20.10
2014,08,03,08,46,20.10
2014,08,03,08,47,20.10
2014,08,03,08,48,20.10
2014,08,03,08,49,20.10
2014,08,03,08,50,20.20
2014,08,03,08,51,20.20
2014,08,03,08,52,20.20
2014,08,03,08,53,20.20
2014,08,03,08,54,20.10
2014,08,03,08,55,20.00
2014,08,03,08,56,20.00
2014,08,03,08,57,20.00
2014,08,03,08,58,19.90
2014,08,03,08,59,19.90
2014,08,03,09,00,19.90
2014,08,03,09,01,19.90
2014,08,03,09,02,19.90
2014,08,03,09,03,19.90
2014,08,03,09,04,20.00
2014,08,03,09,05,20.10
2014,08,03,09,06,20.20
2014,08,03,09,07,20.20
2014,08,03,09,08,20.30
2014,08,03,09,09,20.30
2014,08,03,09,10,20.30
2014,08,03,09,11,20.40
2014,08,03,09,12,20.50
2014,08,03,09,13,20.50
2014,08,03,09,14,20.60
2014,08,03,09,15,20.70
2014,08,03,09,16,20.70
2014,08,03,09,17,20.80
2014,08,03,09,18,20.80
2014,08,03,09,19,20.90
2014,08,03,09,20,20.90
2014,08,03,09,21,20.90
2014,08,03,09,22,21.00
2014,08,03,09,23,21.00
2014,08,03,09,24,21.00
2014,08,03,09,25,20.90
2014,08,03,09,26,20.90
2014,08,03,09,27,20.80
2014,08,03,09,28,20.80
2014,08,03,09,29,20.60
2014,08,03,09,30,20.50
2014,08,03,09,31,20.40
2014,08,03,09,32,20.30
2014,08,03,09,33,20.20
2014,08,03,09,34,20.20
2014,08,03,09,35,20.20
2014,08,03,09,36,20.20
2014,08,03,09,37,20.30
2014,08,03,09,38,20.20
2014,08,03,09,39,20.20
2014,08,03,09,40,20.20
2014,08,03,09,41,20.20
2014,08,03,09,42,20.10
2014,08,03,09,43,20.10
2014,08,03,09,44,20.10
2014,08,03,09,45,20.10
2014,08,03,09,46,20.10
2014,08,03,09,47,20.10
2014,08,03,09,48,20.10
2014,08,03,09,49,20.10
2014,08,03,09,50,20.10
2014,08,03,09,51,20.10
2014,08,03,09,52,20.10
2014,08,03,09,53,20.10
2014,08,03,09,54,20.10
2014,08,03,09,55,20.20
2014,08,03,09,56,20.30
2014,08,03,09,57,20.30
2014,08,03,09,58,20.40
2014,08,03,09,59,20.40
2014,08,03,10,00,20.40
2014,08,03,10,01,20.40
2014,08,03,10,02,20.50
2014,08,03,10,03,20.60
2014,08,03,10,04,20.70
2014,08,03,10,05,20.70
2014,08,03,10,06,20.70
2014,08,03,10,07,20.70
2014,08,03,10,08,20.70
2014,08,03,10,09,20.80
2014,08,03,10,10,20.90
2014,08,03,10,11,20.90
2014,08,03,10,12,20.90
2014,08,03,10,13,20.90
2014,08,03,10,14,21.00
2014,08,03,10,15,21.10
2014,08,03,10,16,21.10
2014,08,03,10,17,21.10
2014,08,03,10,18,21.10
2014,08,03,10,19,21.10
2014,08,03,10,20,21.10
2014,08,03,10,21,21.20
2014,08,03,10,22,21.20
2014,08,03,10,23,21.10
2014,08,03,10,24,21.10
2014,08,03,10,25,21.00
2014,08,03,10,26,21.00
2014,08,03,10,27,20.90
2014,08,03,10,28,21.00
2014,08,03,10,29,21.00
2014,08,03,10,30,21.00
2014,08,03,10,31,21.10
2014,08,03,10,32,21.10
2014,08,03,10,33,21.20
2014,08,03,10,34,21.30
2014,08,03,10,35,21.40
2014,08,03,10,36,21.40
2014,08,03,10,37,21.40
2014,08,03,10,38,21.40
2014,08,03,10,39,21.40
2014,08,03,10,40,21.50
2014,08,03,10,41,21.50
2014,08,03,10,42,21.60
2014,08,03,10,43,21.60
2014,08,03,10,44,21.70
2014,08,03,10,45,21.70
2014,08,03,10,46,21.70
2014,08,03,10,47,21.80
2014,08,03,10,48,21.80
2014,08,03,10,49,21.80
2014,08,03,10,50,21.80
2014,08,03,10,51,21.80
2014,08,03,10,52,21.80
2014,08,03,10,53,21.80
2014,08,03,10,54,21.80
2014,08,03,10,55,21.80
2014,08,03,10,56,21.90
2014,08,03,10,57,22.00
2014,08,03,10,58,22.00
2014,08,03,10,59,22.10
2014,08,03,11,00,22.10
2014,08,03,11,01,22.20
2014,08,03,11,02,22.30
2014,08,03,11,03,22.30
2014,08,03,11,04,22.40
2014,08,03,11,05,22.40
2014,08,03,11,06,22.50
2014,08,03,11,07,22.60
2014,08,03,11,08,22.60
2014,08,03,11,09,22.60
2014,08,03,11,10,22.60
2014,08,03,11,11,22.60
2014,08,03,11,12,22.50
2014,08,03,11,13,22.50
2014,08,03,11,14,22.50
2014,08,03,11,15,22.50
2014,08,03,11,16,22.50
2014,08,03,11,17,22.50
2014,08,03,11,18,22.40
2014,08,03,11,19,22.30
2014,08,03,11,20,22.20
2014,08,03,11,21,22.10
2014,08,03,11,22,22.00
2014,08,03,11,23,22.00
2014,08,03,11,24,22.00
2014,08,03,11,25,22.10
2014,08,03,11,26,22.20
2014,08,03,11,27,22.20
2014,08,03,11,28,22.20
2014,08,03,11,29,22.20
2014,08,03,11,30,22.20
2014,08,03,11,31,22.30
2014,08,03,11,32,22.50
2014,08,03,11,33,22.60
2014,08,03,11,34,22.70
2014,08,03,11,35,22.80
2014,08,03,11,36,22.90
2014,08,03,11,37,23.00
2014,08,03,11,38,23.10
2014,08,03,11,39,23.10
2014,08,03,11,40,23.10
2014,08,03,11,41,23.00
2014,08,03,11,42,23.00
2014,08,03,11,43,22.80
2014,08,03,11,44,22.70
2014,08,03,11,45,22.70
2014,08,03,11,46,22.60
2014,08,03,11,47,22.60
2014,08,03,11,48,22.60
2014,08,03,11,49,22.60
2014,08,03,11,50,22.60
2014,08,03,11,51,22.60
2014,08,03,11,52,22.50
2014,08,03,11,53,22.40
2014,08,03,11,54,22.30
2014,08,03,11,55,22.20
2014,08,03,11,56,22.10
2014,08,03,11,57,22.10
2014,08,03,11,58,22.10
2014,08,03,11,59,22.00
2014,08,03,12,00,22.00
2014,08,03,12,01,22.00
2014,08,03,12,02,22.00
2014,08,03,12,03,22.00
2014,08,03,12,04,22.10
2014,08,03,12,05,22.10
2014,08,03,12,06,22.10
2014,08,03,12,07,22.10
2014,08,03,12,08,22.10
2014,08,03,12,09,22.00
2014,08,03,12,10,22.00
2014,08,03,12,11,22.10
2014,08,03,12,12,22.10
2014,08,03,12,13,22.20
2014,08,03,12,14,22.30
2014,08,03,12,15,22.30
2014,08,03,12,16,22.50
2014,08,03,12,17,22.50
2014,08,03,12,18,22.60
2014,08,03,12,19,22.70
2014,08,03,12,20,22.70
2014,08,03,12,21,22.80
2014,08,03,12,22,22.80
2014,08,03,12,23,22.80
2014,08,03,12,24,22.80
2014,08,03,12,25,22.80
2014,08,03,12,26,22.90
2014,08,03,12,27,23.00
2014,08,03,12,28,23.00
2014,08,03,12,29,23.10
2014,08,03,12,30,23.10
2014,08,03,12,31,23.20
2014,08,03,12,32,23.20
2014,08,03,12,33,23.30
2014,08,03,12,34,23.40
2014,08,03,12,35,23.40
2014,08,03,12,36,23.40
2014,08,03,12,37,23.30
2014,08,03,12,38,23.30
2014,08,03,12,39,23.30
2014,08,03,12,40,23.40
2014,08,03,12,41,23.40
2014,08,03,12,42,23.40
2014,08,03,12,43,23.40
2014,08,03,12,44,23.40
2014,08,03,12,45,23.30
2014,08,03,12,46,23.30
2014,08,03,12,47,23.30
2014,08,03,12,48,23.30
2014,08,03,12,49,23.30
2014,08,03,12,50,23.40
2014,08,03,12,51,23.40
2014,08,03,12,52,23.50
2014,08,03,12,53,23.50
2014,08,03,12,54,23.40
2014,08,03,12,55,23.40
2014,08,03,12,56,23.30
2014,08,03,12,57,23.30
2014,08,03,12,58,23.40
2014,08,03,12,59,23.50
2014,08,03,13,00,23.60
2014,08,03,13,01,23.60
2014,08,03,13,02,23.80
2014,08,03,13,03,23.80
2014,08,03,13,04,23.80
2014,08,03,13,05,23.80
2014,08,03,13,06,23.90
2014,08,03,13,07,23.90
2014,08,03,13,08,23.80
2014,08,03,13,09,23.80
2014,08,03,13,10,23.80
2014,08,03,13,11,23.80
2014,08,03,13,12,23.80
2014,08,03,13,13,23.70
2014,08,03,13,14,23.60
2014,08,03,13,15,23.70
2014,08,03,13,16,23.70
2014,08,03,13,17,23.70
2014,08,03,13,18,23.70
2014,08,03,13,19,23.80
2014,08,03,13,20,23.90
2014,08,03,13,21,23.90
2014,08,03,13,22,23.90
2014,08,03,13,23,23.80
2014,08,03,13,24,23.70
2014,08,03,13,25,23.60
2014,08,03,13,26,23.60
2014,08,03,13,27,23.60
2014,08,03,13,28,23.70
2014,08,03,13,29,23.80
2014,08,03,13,30,23.90
2014,08,03,13,31,23.90
2014,08,03,13,32,23.80
2014,08,03,13,33,23.70
2014,08,03,13,34,23.80
2014,08,03,13,35,23.80
2014,08,03,13,36,23.80
2014,08,03,13,37,23.90
2014,08,03,13,38,24.10
2014,08,03,13,39,24.20
2014,08,03,13,40,24.40
2014,08,03,13,41,24.50
2014,08,03,13,42,24.70
2014,08,03,13,43,24.80
2014,08,03,13,44,25.00
2014,08,03,13,45,25.20
2014,08,03,13,46,25.50
2014,08,03,13,47,25.80
2014,08,03,13,48,26.00
2014,08,03,13,49,26.20
2014,08,03,13,50,26.30
2014,08,03,13,51,26.40
2014,08,03,13,52,26.40
2014,08,03,13,53,26.50
2014,08,03,13,54,26.60
2014,08,03,13,55,26.60
2014,08,03,13,56,26.60
2014,08,03,13,57,26.50
2014,08,03,13,58,26.50
2014,08,03,13,59,26.50
2014,08,03,14,00,26.50
2014,08,03,14,01,26.60
2014,08,03,14,02,26.60
2014,08,03,14,03,26.70
2014,08,03,14,04,26.80
2014,08,03,14,05,26.90
2014,08,03,14,06,27.00
2014,08,03,14,07,27.20
2014,08,03,14,08,27.20
2014,08,03,14,09,27.10
2014,08,03,14,10,27.00
2014,08,03,14,11,27.00
2014,08,03,14,12,26.90
2014,08,03,14,13,26.90
2014,08,03,14,14,26.90
2014,08,03,14,15,27.00
2014,08,03,14,16,27.10
2014,08,03,14,17,27.20
2014,08,03,14,18,27.20
2014,08,03,14,19,27.20
2014,08,03,14,20,27.30
2014,08,03,14,21,27.40
2014,08,03,14,22,27.40
2014,08,03,14,23,27.50
2014,08,03,14,24,27.60
2014,08,03,14,25,27.70
2014,08,03,14,26,27.80
2014,08,03,14,27,27.80
2014,08,03,14,28,27.90
2014,08,03,14,29,27.90
2014,08,03,14,30,27.90
2014,08,03,14,31,27.90
2014,08,03,14,32,28.00
2014,08,03,14,33,28.10
2014,08,03,14,34,28.20
2014,08,03,14,35,28.20
2014,08,03,14,36,28.20
2014,08,03,14,37,28.20
2014,08,03,14,38,28.30
2014,08,03,14,39,28.30
2014,08,03,14,40,28.30
2014,08,03,14,41,28.20
2014,08,03,14,42,28.20
2014,08,03,14,43,28.20
2014,08,03,14,44,28.20
2014,08,03,14,45,28.20
2014,08,03,14,46,28.30
2014,08,03,14,47,28.30
2014,08,03,14,48,28.30
2014,08,03,14,49,28.30
2014,08,03,14,50,28.30
2014,08,03,14,51,28.20
2014,08,03,14,52,28.20
2014,08,03,14,53,28.30
2014,08,03,14,54,28.30
2014,08,03,14,55,28.30
2014,08,03,14,56,28.40
2014,08,03,14,57,28.40
2014,08,03,14,58,28.40
2014,08,03,14,59,28.50
2014,08,03,15,00,28.50
2014,08,03,15,01,28.60
2014,08,03,15,02,28.60
2014,08,03,15,03,28.70
2014,08,03,15,04,28.70
2014,08,03,15,05,28.70
2014,08,03,15,06,28.80
2014,08,03,15,07,28.80
2014,08,03,15,08,28.80
2014,08,03,15,09,28.80
2014,08,03,15,10,28.80
2014,08,03,15,11,28.70
2014,08,03,15,12,28.60
2014,08,03,15,13,28.50
2014,08,03,15,14,28.40
2014,08,03,15,15,28.40
2014,08,03,15,16,28.40
2014,08,03,15,17,28.40
2014,08,03,15,18,28.40
2014,08,03,15,19,28.40
2014,08,03,15,20,28.40
2014,08,03,15,21,28.30
2014,08,03,15,22,28.20
2014,08,03,15,23,28.10
2014,08,03,15,24,28.00
2014,08,03,15,25,28.00
2014,08,03,15,26,28.00
2014,08,03,15,27,28.10
2014,08,03,15,28,28.20
2014,08,03,15,29,28.30
2014,08,03,15,30,28.50
2014,08,03,15,31,28.60
2014,08,03,15,32,28.70
2014,08,03,15,33,28.80
2014,08,03,15,34,28.80
2014,08,03,15,35,28.80
2014,08,03,15,36,28.90
2014,08,03,15,37,28.90
2014,08,03,15,38,29.00
2014,08,03,15,39,29.10
2014,08,03,15,40,29.10
2014,08,03,15,41,29.20
2014,08,03,15,42,29.20
2014,08,03,15,43,29.20
2014,08,03,15,44,29.20
2014,08,03,15,45,29.10
2014,08,03,15,46,29.10
2014,08,03,15,47,29.00
2014,08,03,15,48,28.90
2014,08,03,15,49,29.00
2014,08,03,15,50,29.00
2014,08,03,15,51,29.10
2014,08,03,15,52,29.20
2014,08,03,15,53,29.20
2014,08,03,15,54,29.20
2014,08,03,15,55,29.20
2014,08,03,15,56,29.30
2014,08,03,15,57,29.30
2014,08,03,15,58,29.30
2014,08,03,15,59,29.30
2014,08,03,16,00,29.30
2014,08,03,16,01,29.30
2014,08,03,16,02,29.40
2014,08,03,16,03,29.40
2014,08,03,16,04,29.40
2014,08,03,16,05,29.50
2014,08,03,16,06,29.50
2014,08,03,16,07,29.50
2014,08,03,16,08,29.50
2014,08,03,16,09,29.50
2014,08,03,16,10,29.60
2014,08,03,16,11,29.50
2014,08,03,16,12,29.50
2014,08,03,16,13,29.30
2014,08,03,16,14,29.20
2014,08,03,16,15,29.20
2014,08,03,16,16,29.20
2014,08,03,16,17,29.30
2014,08,03,16,18,29.30
2014,08,03,16,19,29.30
2014,08,03,16,20,29.40
2014,08,03,16,21,29.40
2014,08,03,16,22,29.40
2014,08,03,16,23,29.40
2014,08,03,16,24,29.30
2014,08,03,16,25,29.30
2014,08,03,16,26,29.30
2014,08,03,16,27,29.40
2014,08,03,16,28,29.40
2014,08,03,16,29,29.50
2014,08,03,16,30,29.60
2014,08,03,16,31,29.60
2014,08,03,16,32,29.60
2014,08,03,16,33,29.70
2014,08,03,16,34,29.70
2014,08,03,16,35,29.60
2014,08,03,16,36,29.60
2014,08,03,16,37,29.60
2014,08,03,16,38,29.60
2014,08,03,16,39,29.60
2014,08,03,16,40,29.60
2014,08,03,16,41,29.60
2014,08,03,16,42,29.70
2014,08,03,16,43,29.80
2014,08,03,16,44,29.80
2014,08,03,16,45,29.90
2014,08,03,16,46,30.00
2014,08,03,16,47,30.00
2014,08,03,16,48,30.10
2014,08,03,16,49,30.00
2014,08,03,16,50,30.00
2014,08,03,16,51,30.00
2014,08,03,16,52,29.90
2014,08,03,16,53,30.00
2014,08,03,16,54,30.00
2014,08,03,16,55,30.10
2014,08,03,16,56,30.10
2014,08,03,16,57,30.10
2014,08,03,16,58,30.00
2014,08,03,16,59,30.00
2014,08,03,17,00,30.00
2014,08,03,17,01,30.00
2014,08,03,17,02,30.10
2014,08,03,17,03,30.10
2014,08,03,17,04,30.10
2014,08,03,17,05,30.10
2014,08,03,17,06,30.10
2014,08,03,17,07,30.10
2014,08,03,17,08,30.20
2014,08,03,17,09,30.20
2014,08,03,17,10,30.10
2014,08,03,17,11,30.10
2014,08,03,17,12,30.00
2014,08,03,17,13,30.00
2014,08,03,17,14,29.90
2014,08,03,17,15,29.80
2014,08,03,17,16,29.80
2014,08,03,17,17,29.80
2014,08,03,17,18,29.80
2014,08,03,17,19,29.80